Time,TemperatureF,DewpointF,PressureIn,WindDirection,WindDirectionDegrees,WindSpeedMPH,WindSpeedGustMPH,Humidity,HourlyPrecipIn,Conditions,Clouds,dailyrainin,SoftwareType,DateUTC
2013-06-14 00:00:00,68.0,61.2,17.72,North,357,0.0,0.0,79,0.00,,,0.00,VWS V13.01,2013-06-14 05:00:00,
2013-06-14 00:01:00,67.8,61.1,17.72,North,357,0.0,0.0,79,0.00,,,0.00,VWS V13.01,2013-06-14 05:01:00,
2013-06-14 00:02:00,67.8,61.1,17.72,North,357,0.0,0.0,79,0.00,,,0.00,VWS V13.01,2013-06-14 05:02:00,
2013-06-14 00:03:00,67.8,61.1,17.72,North,357,0.0,0.0,79,0.00,,,0.00,VWS V13.01,2013-06-14 05:03:00,
2013-06-14 00:04:00,67.8,61.1,17.72,North,357,0.0,0.0,79,0.00,,,0.00,VWS V13.01,2013-06-14 05:04:00,
2013-06-14 00:05:00,67.8,61.1,17.72,North,357,0.0,0.0,79,0.00,,,0.00,VWS V13.01,2013-06-14 05:05:00,
2013-06-14 00:06:00,68.0,67.1,17.72,North,357,0.0,0.0,97,0.00,,,0.00,VWS V13.01,2013-06-14 05:06:00,
2013-06-14 00:07:00,68.0,67.1,17.72,North,357,0.0,0.0,97,0.00,,,0.00,VWS V13.01,2013-06-14 05:07:00,
2013-06-14 00:08:00,68.0,68.0,17.72,North,357,0.0,0.0,100,0.00,,,0.00,VWS V13.01,2013-06-14 05:08:00,
2013-06-14 00:09:00,68.0,68.0,17.72,North,357,0.0,0.0,100,0.00,,,0.00,VWS V13.01,2013-06-14 05:09:00,
2013-06-14 00:10:00,68.2,67.3,17.72,North,357,0.0,0.0,97,0.00,,,0.00,VWS V13.01,2013-06-14 05:10:00,
2013-06-14 00:11:00,68.2,67.3,17.72,North,357,0.0,0.0,97,0.00,,,0.00,VWS V13.01,2013-06-14 05:11:00,
2013-06-14 00:12:00,68.2,67.3,17.72,North,357,0.0,0.0,97,0.00,,,0.00,VWS V13.01,2013-06-14 05:12:00,
2013-06-14 00:13:00,68.2,67.3,17.72,North,357,0.0,0.0,97,0.00,,,0.00,VWS V13.01,2013-06-14 05:13:00,
2013-06-14 00:14:00,68.2,67.3,17.72,North,357,0.0,0.0,97,0.00,,,0.00,VWS V13.01,2013-06-14 05:14:00,
2013-06-14 00:15:00,68.4,67.5,17.72,North,357,0.0,0.0,97,0.00,,,0.00,VWS V13.01,2013-06-14 05:15:00,
2013-06-14 00:16:00,68.2,67.3,17.72,North,357,0.0,0.0,97,0.00,,,0.00,VWS V13.01,2013-06-14 05:16:00,
2013-06-14 00:17:00,68.2,67.3,17.72,North,357,0.0,0.0,97,0.00,,,0.00,VWS V13.01,2013-06-14 05:17:00,
2013-06-14 00:18:00,68.2,67.3,17.72,North,357,0.0,0.0,97,0.00,,,0.00,VWS V13.01,2013-06-14 05:18:00,
2013-06-14 00:19:00,68.2,67.3,17.72,North,357,0.0,0.0,97,0.00,,,0.00,VWS V13.01,2013-06-14 05:19:00,
2013-06-14 00:20:00,68.0,67.1,17.72,North,357,0.0,0.0,97,0.00,,,0.00,VWS V13.01,2013-06-14 05:20:00,
2013-06-14 00:21:00,68.0,67.1,17.72,North,357,0.0,0.0,97,0.00,,,0.00,VWS V13.01,2013-06-14 05:21:00,
2013-06-14 00:22:00,67.8,66.9,17.72,North,357,0.0,0.0,97,0.00,,,0.00,VWS V13.01,2013-06-14 05:22:00,
2013-06-14 00:23:00,67.8,66.9,17.72,North,357,0.0,0.0,97,0.00,,,0.00,VWS V13.01,2013-06-14 05:23:00,
2013-06-14 00:24:00,67.6,66.8,17.72,North,357,0.0,0.0,97,0.00,,,0.00,VWS V13.01,2013-06-14 05:24:00,
2013-06-14 00:25:00,67.6,66.8,17.72,North,357,0.0,0.0,97,0.00,,,0.00,VWS V13.01,2013-06-14 05:25:00,
2013-06-14 00:26:00,67.6,66.8,17.72,North,357,0.0,0.0,97,0.00,,,0.00,VWS V13.01,2013-06-14 05:26:00,
2013-06-14 00:27:00,67.5,66.6,17.72,North,357,0.0,0.0,97,0.00,,,0.00,VWS V13.01,2013-06-14 05:27:00,
2013-06-14 00:28:00,67.5,66.6,17.72,North,357,0.0,0.0,97,0.00,,,0.00,VWS V13.01,2013-06-14 05:28:00,
2013-06-14 00:29:00,67.3,66.4,17.72,North,357,0.0,0.0,97,0.00,,,0.00,VWS V13.01,2013-06-14 05:29:00,
2013-06-14 00:30:00,67.3,66.4,17.72,North,357,0.0,0.0,97,0.00,,,0.00,VWS V13.01,2013-06-14 05:30:00,
2013-06-14 00:31:00,67.3,66.4,17.72,North,357,0.0,0.0,97,0.00,,,0.00,VWS V13.01,2013-06-14 05:31:00,
2013-06-14 00:32:00,67.1,66.2,17.72,North,357,0.0,0.0,97,0.00,,,0.00,VWS V13.01,2013-06-14 05:32:00,
2013-06-14 00:33:00,67.1,66.2,17.72,North,357,0.0,0.0,97,0.00,,,0.00,VWS V13.01,2013-06-14 05:33:00,
2013-06-14 00:34:00,67.1,66.2,17.72,North,357,0.0,0.0,97,0.00,,,0.00,VWS V13.01,2013-06-14 05:34:00,
2013-06-14 00:35:00,67.1,66.2,17.72,North,357,0.0,0.0,97,0.00,,,0.00,VWS V13.01,2013-06-14 05:35:00,
2013-06-14 00:36:00,67.1,66.2,17.72,North,357,0.0,0.0,97,0.00,,,0.00,VWS V13.01,2013-06-14 05:36:00,
2013-06-14 00:37:00,66.9,66.0,17.72,North,357,0.0,0.0,97,0.00,,,0.00,VWS V13.01,2013-06-14 05:37:00,
2013-06-14 00:38:00,66.9,66.0,17.72,North,357,0.0,0.0,97,0.00,,,0.00,VWS V13.01,2013-06-14 05:38:00,
2013-06-14 00:39:00,66.9,66.9,17.72,North,357,0.0,0.0,100,0.00,,,0.00,VWS V13.01,2013-06-14 05:39:00,
2013-06-14 00:40:00,66.9,66.9,17.72,North,357,0.0,0.0,100,0.00,,,0.00,VWS V13.01,2013-06-14 05:40:00,
2013-06-14 00:41:00,66.9,66.9,17.72,North,357,0.0,0.0,100,0.00,,,0.00,VWS V13.01,2013-06-14 05:41:00,
2013-06-14 00:42:00,66.9,66.9,17.72,North,357,0.0,0.0,100,0.00,,,0.00,VWS V13.01,2013-06-14 05:42:00,
2013-06-14 00:43:00,66.7,66.7,17.72,North,357,0.0,0.0,100,0.00,,,0.00,VWS V13.01,2013-06-14 05:43:00,
2013-06-14 00:44:00,66.7,66.7,17.72,North,357,0.0,0.0,100,0.00,,,0.00,VWS V13.01,2013-06-14 05:44:00,
2013-06-14 00:45:00,66.7,66.7,17.72,North,357,0.0,0.0,100,0.00,,,0.00,VWS V13.01,2013-06-14 05:45:00,
2013-06-14 00:46:00,66.7,66.7,17.72,North,357,0.0,0.0,100,0.00,,,0.00,VWS V13.01,2013-06-14 05:46:00,
2013-06-14 00:47:00,66.7,66.7,17.72,North,357,0.0,0.0,100,0.00,,,0.00,VWS V13.01,2013-06-14 05:47:00,
2013-06-14 00:48:00,66.7,66.7,17.72,North,357,0.0,0.0,100,0.00,,,0.00,VWS V13.01,2013-06-14 05:48:00,
2013-06-14 00:49:00,66.7,66.7,17.72,North,357,0.0,0.0,100,0.00,,,0.00,VWS V13.01,2013-06-14 05:49:00,
2013-06-14 00:50:00,66.7,66.7,17.72,North,357,0.0,0.0,100,0.00,,,0.00,VWS V13.01,2013-06-14 05:50:00,
2013-06-14 00:51:00,66.7,66.7,17.72,North,357,0.0,0.0,100,0.00,,,0.00,VWS V13.01,2013-06-14 05:51:00,
2013-06-14 00:52:00,66.6,66.6,17.72,North,357,0.0,0.0,100,0.00,,,0.00,VWS V13.01,2013-06-14 05:52:00,
2013-06-14 00:53:00,66.6,66.6,17.72,North,357,0.0,0.0,100,0.00,,,0.00,VWS V13.01,2013-06-14 05:53:00,
2013-06-14 00:54:00,66.6,66.6,17.72,North,357,0.0,0.0,100,0.00,,,0.00,VWS V13.01,2013-06-14 05:54:00,
2013-06-14 00:55:00,66.6,66.6,17.72,North,357,0.0,0.0,100,0.00,,,0.00,VWS V13.01,2013-06-14 05:55:00,
2013-06-14 00:56:00,66.6,66.6,17.72,North,357,0.0,0.0,100,0.00,,,0.00,VWS V13.01,2013-06-14 05:56:00,
2013-06-14 00:57:00,66.6,66.6,17.72,North,357,0.0,0.0,100,0.00,,,0.00,VWS V13.01,2013-06-14 05:57:00,
2013-06-14 00:58:00,66.6,66.6,17.72,North,357,0.0,0.0,100,0.00,,,0.00,VWS V13.01,2013-06-14 05:58:00,
2013-06-14 00:59:00,66.6,66.6,17.72,North,357,0.0,0.0,100,0.00,,,0.00,VWS V13.01,2013-06-14 05:59:00,
2013-06-14 01:00:00,66.7,66.7,17.72,North,357,0.0,0.0,100,0.00,,,0.00,VWS V13.01,2013-06-14 06:00:00,
2013-06-14 01:01:00,66.9,66.9,17.72,North,357,0.0,0.0,100,0.00,,,0.00,VWS V13.01,2013-06-14 06:01:00,
2013-06-14 01:02:00,66.9,66.9,17.72,North,357,0.0,0.0,100,0.00,,,0.00,VWS V13.01,2013-06-14 06:02:00,
2013-06-14 01:03:00,66.9,66.9,17.72,North,357,0.0,0.0,100,0.00,,,0.00,VWS V13.01,2013-06-14 06:03:00,
2013-06-14 01:04:00,66.9,66.9,17.72,North,357,0.0,0.0,100,0.00,,,0.00,VWS V13.01,2013-06-14 06:04:00,
2013-06-14 01:05:00,66.9,66.9,17.72,North,357,0.0,0.0,100,0.00,,,0.00,VWS V13.01,2013-06-14 06:05:00,
2013-06-14 01:06:00,67.1,67.1,17.72,North,357,0.0,0.0,100,0.00,,,0.00,VWS V13.01,2013-06-14 06:06:00,
2013-06-14 01:07:00,67.1,67.1,17.72,North,357,0.0,0.0,100,0.00,,,0.00,VWS V13.01,2013-06-14 06:07:00,
2013-06-14 01:08:00,67.1,67.1,17.72,North,357,0.0,0.0,100,0.00,,,0.00,VWS V13.01,2013-06-14 06:08:00,
2013-06-14 01:09:00,67.1,67.1,17.72,North,357,0.0,0.0,100,0.00,,,0.00,VWS V13.01,2013-06-14 06:09:00,
2013-06-14 01:10:00,67.1,67.1,17.72,North,357,0.0,0.0,100,0.00,,,0.00,VWS V13.01,2013-06-14 06:10:00,
2013-06-14 01:11:00,67.1,67.1,17.72,North,357,0.0,0.0,100,0.00,,,0.00,VWS V13.01,2013-06-14 06:11:00,
2013-06-14 01:12:00,67.1,67.1,17.72,North,357,0.0,0.0,100,0.00,,,0.00,VWS V13.01,2013-06-14 06:12:00,
2013-06-14 01:13:00,67.1,67.1,17.72,North,357,0.0,0.0,100,0.00,,,0.00,VWS V13.01,2013-06-14 06:13:00,
2013-06-14 01:14:00,67.3,67.3,17.72,North,357,0.0,0.0,100,0.00,,,0.00,VWS V13.01,2013-06-14 06:14:00,
2013-06-14 01:15:00,67.3,67.3,17.72,North,357,0.0,0.0,100,0.00,,,0.00,VWS V13.01,2013-06-14 06:15:00,
2013-06-14 01:16:00,67.3,67.3,17.72,North,357,0.0,0.0,100,0.00,,,0.00,VWS V13.01,2013-06-14 06:16:00,
2013-06-14 01:17:00,67.3,67.3,17.72,North,357,0.0,0.0,100,0.00,,,0.00,VWS V13.01,2013-06-14 06:17:00,
2013-06-14 01:18:00,67.1,67.1,17.72,North,357,0.0,0.0,100,0.00,,,0.00,VWS V13.01,2013-06-14 06:18:00,
2013-06-14 01:19:00,67.1,67.1,17.72,North,357,0.0,0.0,100,0.00,,,0.00,VWS V13.01,2013-06-14 06:19:00,
2013-06-14 01:20:00,67.1,67.1,17.72,North,357,0.0,0.0,100,0.00,,,0.00,VWS V13.01,2013-06-14 06:20:00,
2013-06-14 01:21:00,66.9,66.9,17.72,North,357,0.0,0.0,100,0.00,,,0.00,VWS V13.01,2013-06-14 06:21:00,
2013-06-14 01:22:00,66.9,66.9,17.72,North,357,0.0,0.0,100,0.00,,,0.00,VWS V13.01,2013-06-14 06:22:00,
2013-06-14 01:23:00,66.9,66.9,17.72,North,357,0.0,0.0,100,0.00,,,0.00,VWS V13.01,2013-06-14 06:23:00,
2013-06-14 01:24:00,66.7,66.7,17.72,North,357,0.0,0.0,100,0.00,,,0.00,VWS V13.01,2013-06-14 06:24:00,
2013-06-14 01:25:00,66.7,66.7,17.72,North,357,0.0,0.0,100,0.00,,,0.00,VWS V13.01,2013-06-14 06:25:00,
2013-06-14 01:26:00,66.7,66.7,17.72,North,357,0.0,0.0,100,0.00,,,0.00,VWS V13.01,2013-06-14 06:26:00,
2013-06-14 01:27:00,66.7,66.7,17.72,North,357,0.0,0.0,100,0.00,,,0.00,VWS V13.01,2013-06-14 06:27:00,
2013-06-14 01:28:00,66.7,66.7,17.72,North,357,0.0,0.0,100,0.00,,,0.00,VWS V13.01,2013-06-14 06:28:00,
2013-06-14 01:29:00,66.7,66.7,17.72,North,357,0.0,0.0,100,0.00,,,0.00,VWS V13.01,2013-06-14 06:29:00,
2013-06-14 01:30:00,66.6,66.6,17.72,North,357,0.0,0.0,100,0.00,,,0.00,VWS V13.01,2013-06-14 06:30:00,
2013-06-14 01:31:00,66.6,66.6,17.72,North,357,0.0,0.0,100,0.00,,,0.00,VWS V13.01,2013-06-14 06:31:00,
2013-06-14 01:32:00,66.6,66.6,17.72,North,357,0.0,0.0,100,0.00,,,0.00,VWS V13.01,2013-06-14 06:32:00,
2013-06-14 01:33:00,66.6,66.6,17.72,North,357,0.0,0.0,100,0.00,,,0.00,VWS V13.01,2013-06-14 06:33:00,
2013-06-14 01:34:00,66.6,66.6,17.72,North,357,0.0,0.0,100,0.00,,,0.00,VWS V13.01,2013-06-14 06:34:00,
2013-06-14 01:35:00,66.4,66.4,17.72,North,357,0.0,0.0,100,0.00,,,0.00,VWS V13.01,2013-06-14 06:35:00,
2013-06-14 01:36:00,66.4,66.4,17.72,North,357,0.0,0.0,100,0.00,,,0.00,VWS V13.01,2013-06-14 06:36:00,
2013-06-14 01:37:00,66.4,66.4,17.72,North,357,0.0,0.0,100,0.00,,,0.00,VWS V13.01,2013-06-14 06:37:00,
2013-06-14 01:38:00,66.4,66.4,17.72,North,357,0.0,0.0,100,0.00,,,0.00,VWS V13.01,2013-06-14 06:38:00,
2013-06-14 01:39:00,66.4,66.4,17.72,North,357,0.0,0.0,100,0.00,,,0.00,VWS V13.01,2013-06-14 06:39:00,
2013-06-14 01:40:00,66.4,66.4,17.72,North,357,0.0,0.0,100,0.00,,,0.00,VWS V13.01,2013-06-14 06:40:00,
2013-06-14 01:41:00,66.4,66.4,17.72,North,357,0.0,0.0,100,0.00,,,0.00,VWS V13.01,2013-06-14 06:41:00,
2013-06-14 01:42:00,66.4,66.4,17.72,North,357,0.0,0.0,100,0.00,,,0.00,VWS V13.01,2013-06-14 06:42:00,
2013-06-14 01:43:00,66.4,66.4,17.72,North,357,0.0,0.0,100,0.00,,,0.00,VWS V13.01,2013-06-14 06:43:00,
2013-06-14 01:44:00,66.4,66.4,17.72,North,357,0.0,0.0,100,0.00,,,0.00,VWS V13.01,2013-06-14 06:44:00,
2013-06-14 01:45:00,66.2,66.2,17.72,North,357,0.0,0.0,100,0.00,,,0.00,VWS V13.01,2013-06-14 06:45:00,
2013-06-14 01:46:00,66.2,66.2,17.72,North,357,0.0,0.0,100,0.00,,,0.00,VWS V13.01,2013-06-14 06:46:00,
2013-06-14 01:47:00,66.2,66.2,17.72,North,357,0.0,0.0,100,0.00,,,0.00,VWS V13.01,2013-06-14 06:47:00,
2013-06-14 01:48:00,66.2,66.2,17.72,North,357,0.0,0.0,100,0.00,,,0.00,VWS V13.01,2013-06-14 06:48:00,
2013-06-14 01:49:00,66.2,66.2,17.72,North,357,0.0,0.0,100,0.00,,,0.00,VWS V13.01,2013-06-14 06:49:00,
2013-06-14 01:50:00,66.2,66.2,17.72,North,357,0.0,0.0,100,0.00,,,0.00,VWS V13.01,2013-06-14 06:50:00,
2013-06-14 01:51:00,66.2,66.2,17.72,North,357,0.0,0.0,100,0.00,,,0.00,VWS V13.01,2013-06-14 06:51:00,
2013-06-14 01:52:00,66.2,66.2,17.72,North,357,0.0,0.0,100,0.00,,,0.00,VWS V13.01,2013-06-14 06:52:00,
2013-06-14 01:53:00,66.2,66.2,17.72,North,357,0.0,0.0,100,0.00,,,0.00,VWS V13.01,2013-06-14 06:53:00,
2013-06-14 01:54:00,66.4,66.4,17.72,North,357,0.0,0.0,100,0.00,,,0.00,VWS V13.01,2013-06-14 06:54:00,
2013-06-14 01:55:00,66.4,66.4,17.72,North,357,0.0,0.0,100,0.00,,,0.00,VWS V13.01,2013-06-14 06:55:00,
2013-06-14 01:56:00,66.4,66.4,17.72,North,357,0.0,0.0,100,0.00,,,0.00,VWS V13.01,2013-06-14 06:56:00,
2013-06-14 01:57:00,66.4,66.4,17.72,North,357,0.0,0.0,100,0.00,,,0.00,VWS V13.01,2013-06-14 06:57:00,
2013-06-14 01:58:00,66.6,66.6,17.72,North,357,0.0,0.0,100,0.00,,,0.00,VWS V13.01,2013-06-14 06:58:00,
2013-06-14 01:59:00,66.6,66.6,17.72,North,357,0.0,0.0,100,0.00,,,0.00,VWS V13.01,2013-06-14 06:59:00,
2013-06-14 02:00:00,66.6,66.6,17.72,North,357,0.0,0.0,100,0.00,,,0.00,VWS V13.01,2013-06-14 07:00:00,
2013-06-14 02:01:00,66.6,66.6,17.72,North,357,0.0,0.0,100,0.00,,,0.00,VWS V13.01,2013-06-14 07:01:00,
2013-06-14 02:02:00,66.6,66.6,17.72,North,357,0.0,0.0,100,0.00,,,0.00,VWS V13.01,2013-06-14 07:02:00,
2013-06-14 02:03:00,66.6,66.6,17.72,North,357,0.0,0.0,100,0.00,,,0.00,VWS V13.01,2013-06-14 07:03:00,
2013-06-14 02:04:00,66.6,66.6,17.72,North,357,0.0,0.0,100,0.00,,,0.00,VWS V13.01,2013-06-14 07:04:00,
2013-06-14 02:05:00,66.6,66.6,17.72,North,357,0.0,0.0,100,0.00,,,0.00,VWS V13.01,2013-06-14 07:05:00,
2013-06-14 02:06:00,66.6,66.6,17.72,North,357,0.0,0.0,100,0.00,,,0.00,VWS V13.01,2013-06-14 07:06:00,
2013-06-14 02:07:00,66.4,66.4,17.72,North,357,0.0,0.0,100,0.00,,,0.00,VWS V13.01,2013-06-14 07:07:00,
2013-06-14 02:08:00,66.4,66.4,17.72,North,357,0.0,0.0,100,0.00,,,0.00,VWS V13.01,2013-06-14 07:08:00,
2013-06-14 02:09:00,66.4,66.4,17.72,North,357,0.0,0.0,100,0.00,,,0.00,VWS V13.01,2013-06-14 07:09:00,
2013-06-14 02:10:00,66.6,66.6,17.72,North,357,0.0,0.0,100,0.00,,,0.00,VWS V13.01,2013-06-14 07:10:00,
2013-06-14 02:11:00,66.6,66.6,17.72,North,357,0.0,0.0,100,0.00,,,0.00,VWS V13.01,2013-06-14 07:11:00,
2013-06-14 02:12:00,66.4,66.4,17.72,North,357,0.0,0.0,100,0.00,,,0.00,VWS V13.01,2013-06-14 07:12:00,
2013-06-14 02:13:00,66.2,66.2,17.72,North,357,0.0,0.0,100,0.00,,,0.00,VWS V13.01,2013-06-14 07:13:00,
2013-06-14 02:14:00,66.2,66.2,17.72,North,357,0.0,0.0,100,0.00,,,0.00,VWS V13.01,2013-06-14 07:14:00,
2013-06-14 02:15:00,66.2,66.2,17.72,North,357,0.0,0.0,100,0.00,,,0.00,VWS V13.01,2013-06-14 07:15:00,
2013-06-14 02:16:00,66.2,66.2,17.72,North,357,0.0,0.0,100,0.00,,,0.00,VWS V13.01,2013-06-14 07:16:00,
2013-06-14 02:17:00,66.0,66.0,17.72,North,357,0.0,0.0,100,0.00,,,0.00,VWS V13.01,2013-06-14 07:17:00,
2013-06-14 02:18:00,66.0,66.0,17.72,North,357,0.0,0.0,100,0.00,,,0.00,VWS V13.01,2013-06-14 07:18:00,
2013-06-14 02:19:00,65.8,65.8,17.72,North,357,0.0,0.0,100,0.00,,,0.00,VWS V13.01,2013-06-14 07:19:00,
2013-06-14 02:20:00,65.8,65.8,17.72,North,357,0.0,0.0,100,0.00,,,0.00,VWS V13.01,2013-06-14 07:20:00,
2013-06-14 02:21:00,65.8,65.8,17.72,North,357,0.0,0.0,100,0.00,,,0.00,VWS V13.01,2013-06-14 07:21:00,
2013-06-14 02:22:00,65.7,65.7,17.72,North,357,0.0,0.0,100,0.00,,,0.00,VWS V13.01,2013-06-14 07:22:00,
2013-06-14 02:23:00,65.7,65.7,17.72,North,357,0.0,0.0,100,0.00,,,0.00,VWS V13.01,2013-06-14 07:23:00,
2013-06-14 02:24:00,65.7,65.7,17.72,North,357,0.0,0.0,100,0.00,,,0.00,VWS V13.01,2013-06-14 07:24:00,
2013-06-14 02:25:00,65.7,65.7,17.72,North,357,0.0,0.0,100,0.00,,,0.00,VWS V13.01,2013-06-14 07:25:00,
2013-06-14 02:26:00,65.7,65.7,17.72,North,357,0.0,0.0,100,0.00,,,0.00,VWS V13.01,2013-06-14 07:26:00,
2013-06-14 02:27:00,65.7,65.7,17.72,North,357,0.0,0.0,100,0.00,,,0.00,VWS V13.01,2013-06-14 07:27:00,
2013-06-14 02:28:00,65.5,65.5,17.72,North,357,0.0,0.0,100,0.00,,,0.00,VWS V13.01,2013-06-14 07:28:00,
2013-06-14 02:29:00,65.5,65.5,17.72,North,357,0.0,0.0,100,0.00,,,0.00,VWS V13.01,2013-06-14 07:29:00,
2013-06-14 02:30:00,65.3,65.3,17.72,North,357,0.0,0.0,100,0.00,,,0.00,VWS V13.01,2013-06-14 07:30:00,
2013-06-14 02:31:00,65.3,65.3,17.72,North,357,0.0,0.0,100,0.00,,,0.00,VWS V13.01,2013-06-14 07:31:00,
2013-06-14 02:32:00,65.3,65.3,17.72,North,357,0.0,0.0,100,0.00,,,0.00,VWS V13.01,2013-06-14 07:32:00,
2013-06-14 02:33:00,65.3,65.3,17.72,North,357,0.0,0.0,100,0.00,,,0.00,VWS V13.01,2013-06-14 07:33:00,
2013-06-14 02:34:00,65.3,65.3,17.72,North,357,0.0,0.0,100,0.00,,,0.00,VWS V13.01,2013-06-14 07:34:00,
2013-06-14 02:35:00,65.3,65.3,17.72,North,357,0.0,0.0,100,0.00,,,0.00,VWS V13.01,2013-06-14 07:35:00,
2013-06-14 02:36:00,65.3,65.3,17.72,North,357,0.0,0.0,100,0.00,,,0.00,VWS V13.01,2013-06-14 07:36:00,
2013-06-14 02:37:00,65.3,65.3,17.72,North,357,0.0,0.0,100,0.00,,,0.00,VWS V13.01,2013-06-14 07:37:00,
2013-06-14 02:38:00,65.3,65.3,17.72,North,357,0.0,0.0,100,0.00,,,0.00,VWS V13.01,2013-06-14 07:38:00,
2013-06-14 02:39:00,65.3,65.3,17.72,North,357,0.0,0.0,100,0.00,,,0.00,VWS V13.01,2013-06-14 07:39:00,
2013-06-14 02:40:00,65.3,65.3,17.72,North,357,0.0,0.0,100,0.00,,,0.00,VWS V13.01,2013-06-14 07:40:00,
2013-06-14 02:41:00,65.1,65.1,17.72,North,357,0.0,0.0,100,0.00,,,0.00,VWS V13.01,2013-06-14 07:41:00,
2013-06-14 02:42:00,65.1,65.1,17.72,North,357,0.0,0.0,100,0.00,,,0.00,VWS V13.01,2013-06-14 07:42:00,
2013-06-14 02:43:00,65.1,65.1,17.72,North,357,0.0,0.0,100,0.00,,,0.00,VWS V13.01,2013-06-14 07:43:00,
2013-06-14 02:44:00,65.1,65.1,17.72,North,357,0.0,0.0,100,0.00,,,0.00,VWS V13.01,2013-06-14 07:44:00,
2013-06-14 02:45:00,65.1,65.1,17.72,North,357,0.0,0.0,100,0.00,,,0.00,VWS V13.01,2013-06-14 07:45:00,
2013-06-14 02:46:00,65.1,65.1,17.72,North,357,0.0,0.0,100,0.00,,,0.00,VWS V13.01,2013-06-14 07:46:00,
2013-06-14 02:47:00,65.1,65.1,17.72,North,357,0.0,0.0,100,0.00,,,0.00,VWS V13.01,2013-06-14 07:47:00,
2013-06-14 02:48:00,65.1,65.1,17.72,North,357,0.0,0.0,100,0.00,,,0.00,VWS V13.01,2013-06-14 07:48:00,
2013-06-14 02:49:00,64.9,64.9,17.72,North,357,0.0,0.0,100,0.00,,,0.00,VWS V13.01,2013-06-14 07:49:00,
2013-06-14 02:50:00,65.1,65.1,17.72,North,357,0.0,0.0,100,0.00,,,0.00,VWS V13.01,2013-06-14 07:50:00,
2013-06-14 02:51:00,65.1,65.1,17.72,North,357,0.0,0.0,100,0.00,,,0.00,VWS V13.01,2013-06-14 07:51:00,
2013-06-14 02:52:00,65.1,65.1,17.72,North,357,0.0,0.0,100,0.00,,,0.00,VWS V13.01,2013-06-14 07:52:00,
2013-06-14 02:53:00,65.1,65.1,17.72,North,357,0.0,0.0,100,0.00,,,0.00,VWS V13.01,2013-06-14 07:53:00,
2013-06-14 02:54:00,65.1,65.1,17.72,North,357,0.0,0.0,100,0.00,,,0.00,VWS V13.01,2013-06-14 07:54:00,
2013-06-14 02:55:00,65.1,65.1,17.72,North,357,0.0,0.0,100,0.00,,,0.00,VWS V13.01,2013-06-14 07:55:00,
2013-06-14 02:56:00,65.3,65.3,17.72,North,357,0.0,0.0,100,0.00,,,0.00,VWS V13.01,2013-06-14 07:56:00,
2013-06-14 02:57:00,65.3,65.3,17.72,North,357,0.0,0.0,100,0.00,,,0.00,VWS V13.01,2013-06-14 07:57:00,
2013-06-14 02:58:00,65.3,65.3,17.72,North,357,0.0,0.0,100,0.00,,,0.00,VWS V13.01,2013-06-14 07:58:00,
2013-06-14 02:59:00,65.3,65.3,17.72,North,357,0.0,0.0,100,0.00,,,0.00,VWS V13.01,2013-06-14 07:59:00,
2013-06-14 03:00:00,65.3,65.3,17.72,North,357,0.0,0.0,100,0.00,,,0.00,VWS V13.01,2013-06-14 08:00:00,
2013-06-14 03:01:00,65.3,65.3,17.72,North,357,0.0,0.0,100,0.00,,,0.00,VWS V13.01,2013-06-14 08:01:00,
2013-06-14 03:02:00,65.3,65.3,17.72,North,357,0.0,0.0,100,0.00,,,0.00,VWS V13.01,2013-06-14 08:02:00,
2013-06-14 03:03:00,65.3,65.3,17.72,North,357,0.0,0.0,100,0.00,,,0.00,VWS V13.01,2013-06-14 08:03:00,
2013-06-14 03:04:00,65.3,65.3,17.72,North,357,0.0,0.0,100,0.00,,,0.00,VWS V13.01,2013-06-14 08:04:00,
2013-06-14 03:05:00,65.3,65.3,17.72,North,357,0.0,0.0,100,0.00,,,0.00,VWS V13.01,2013-06-14 08:05:00,
2013-06-14 03:06:00,65.3,65.3,17.72,North,357,0.0,0.0,100,0.00,,,0.00,VWS V13.01,2013-06-14 08:06:00,
2013-06-14 03:07:00,65.1,65.1,17.72,North,357,0.0,0.0,100,0.00,,,0.00,VWS V13.01,2013-06-14 08:07:00,
2013-06-14 03:08:00,65.1,65.1,17.72,North,357,0.0,0.0,100,0.00,,,0.00,VWS V13.01,2013-06-14 08:08:00,
2013-06-14 03:09:00,64.9,64.9,17.72,North,357,0.0,0.0,100,0.00,,,0.00,VWS V13.01,2013-06-14 08:09:00,
2013-06-14 03:10:00,64.9,64.9,17.72,North,357,0.0,0.0,100,0.00,,,0.00,VWS V13.01,2013-06-14 08:10:00,
2013-06-14 03:11:00,64.9,64.9,17.72,North,357,0.0,0.0,100,0.00,,,0.00,VWS V13.01,2013-06-14 08:11:00,
2013-06-14 03:12:00,64.9,64.9,17.72,North,357,0.0,0.0,100,0.00,,,0.00,VWS V13.01,2013-06-14 08:12:00,
2013-06-14 03:13:00,64.9,64.9,17.72,North,357,0.0,0.0,100,0.00,,,0.00,VWS V13.01,2013-06-14 08:13:00,
2013-06-14 03:14:00,64.9,64.9,17.72,North,357,0.0,0.0,100,0.00,,,0.00,VWS V13.01,2013-06-14 08:14:00,
2013-06-14 03:15:00,64.9,64.9,17.72,North,357,0.0,0.0,100,0.00,,,0.00,VWS V13.01,2013-06-14 08:15:00,
2013-06-14 03:16:00,65.1,65.1,17.72,North,357,0.0,0.0,100,0.00,,,0.00,VWS V13.01,2013-06-14 08:16:00,
2013-06-14 03:17:00,65.1,65.1,17.72,North,357,0.0,0.0,100,0.00,,,0.00,VWS V13.01,2013-06-14 08:17:00,
2013-06-14 03:18:00,65.1,65.1,17.72,North,357,0.0,0.0,100,0.00,,,0.00,VWS V13.01,2013-06-14 08:18:00,
2013-06-14 03:19:00,65.1,65.1,17.72,North,357,0.0,0.0,100,0.00,,,0.00,VWS V13.01,2013-06-14 08:19:00,
2013-06-14 03:20:00,65.1,65.1,17.72,North,357,0.0,0.0,100,0.00,,,0.00,VWS V13.01,2013-06-14 08:20:00,
2013-06-14 03:21:00,65.1,65.1,17.72,North,357,0.0,0.0,100,0.00,,,0.00,VWS V13.01,2013-06-14 08:21:00,
2013-06-14 03:22:00,65.1,65.1,17.72,North,357,0.0,0.0,100,0.00,,,0.00,VWS V13.01,2013-06-14 08:22:00,
2013-06-14 03:23:00,65.1,65.1,17.72,North,357,0.0,0.0,100,0.00,,,0.00,VWS V13.01,2013-06-14 08:23:00,
2013-06-14 03:24:00,65.3,65.3,17.72,North,357,0.0,0.0,100,0.00,,,0.00,VWS V13.01,2013-06-14 08:24:00,
2013-06-14 03:25:00,65.3,65.3,17.72,North,357,0.0,0.0,100,0.00,,,0.00,VWS V13.01,2013-06-14 08:25:00,
2013-06-14 03:26:00,65.5,65.5,17.72,North,357,0.0,0.0,100,0.00,,,0.00,VWS V13.01,2013-06-14 08:26:00,
2013-06-14 03:27:00,65.5,65.5,17.72,North,357,0.0,0.0,100,0.00,,,0.00,VWS V13.01,2013-06-14 08:27:00,
2013-06-14 03:28:00,65.5,65.5,17.72,North,357,0.0,0.0,100,0.00,,,0.00,VWS V13.01,2013-06-14 08:28:00,
2013-06-14 03:29:00,65.5,65.5,17.72,North,357,0.0,0.0,100,0.00,,,0.00,VWS V13.01,2013-06-14 08:29:00,
2013-06-14 03:30:00,65.5,65.5,17.72,North,357,0.0,0.0,100,0.00,,,0.00,VWS V13.01,2013-06-14 08:30:00,
2013-06-14 03:31:00,65.5,65.5,17.72,North,357,0.0,0.0,100,0.00,,,0.00,VWS V13.01,2013-06-14 08:31:00,
2013-06-14 03:32:00,65.5,65.5,17.72,North,357,0.0,0.0,100,0.00,,,0.00,VWS V13.01,2013-06-14 08:32:00,
2013-06-14 03:33:00,65.5,65.5,17.72,North,357,0.0,0.0,100,0.00,,,0.00,VWS V13.01,2013-06-14 08:33:00,
2013-06-14 03:34:00,65.3,65.3,17.72,North,357,0.0,0.0,100,0.00,,,0.00,VWS V13.01,2013-06-14 08:34:00,
2013-06-14 03:35:00,65.3,65.3,17.72,North,357,0.0,0.0,100,0.00,,,0.00,VWS V13.01,2013-06-14 08:35:00,
2013-06-14 03:36:00,65.5,65.5,17.72,North,357,0.0,0.0,100,0.00,,,0.00,VWS V13.01,2013-06-14 08:36:00,
2013-06-14 03:37:00,65.5,65.5,17.72,North,357,0.0,0.0,100,0.00,,,0.00,VWS V13.01,2013-06-14 08:37:00,
2013-06-14 03:38:00,65.5,65.5,17.72,North,357,0.0,0.0,100,0.00,,,0.00,VWS V13.01,2013-06-14 08:38:00,
2013-06-14 03:39:00,65.3,65.3,17.72,North,357,0.0,0.0,100,0.00,,,0.00,VWS V13.01,2013-06-14 08:39:00,
2013-06-14 03:40:00,65.1,65.1,17.72,North,357,0.0,0.0,100,0.00,,,0.00,VWS V13.01,2013-06-14 08:40:00,
2013-06-14 03:41:00,65.1,65.1,17.72,North,357,0.0,0.0,100,0.00,,,0.00,VWS V13.01,2013-06-14 08:41:00,
2013-06-14 03:42:00,65.1,65.1,17.72,North,357,0.0,0.0,100,0.00,,,0.00,VWS V13.01,2013-06-14 08:42:00,
2013-06-14 03:43:00,65.1,65.1,17.72,North,357,0.0,0.0,100,0.00,,,0.00,VWS V13.01,2013-06-14 08:43:00,
2013-06-14 03:44:00,65.1,65.1,17.72,North,357,0.0,0.0,100,0.00,,,0.00,VWS V13.01,2013-06-14 08:44:00,
2013-06-14 03:45:00,64.9,64.9,17.72,North,357,0.0,0.0,100,0.00,,,0.00,VWS V13.01,2013-06-14 08:45:00,
2013-06-14 03:46:00,64.9,64.9,17.72,North,357,0.0,0.0,100,0.00,,,0.00,VWS V13.01,2013-06-14 08:46:00,
2013-06-14 03:47:00,64.8,64.8,17.72,North,357,0.0,0.0,100,0.00,,,0.00,VWS V13.01,2013-06-14 08:47:00,
2013-06-14 03:48:00,64.8,64.8,17.72,North,357,0.0,0.0,100,0.00,,,0.00,VWS V13.01,2013-06-14 08:48:00,
2013-06-14 03:49:00,64.8,64.8,17.72,North,357,0.0,0.0,100,0.00,,,0.00,VWS V13.01,2013-06-14 08:49:00,
2013-06-14 03:50:00,64.8,64.8,17.72,North,357,0.0,0.0,100,0.00,,,0.00,VWS V13.01,2013-06-14 08:50:00,
2013-06-14 03:51:00,64.8,64.8,17.72,North,357,0.0,0.0,100,0.00,,,0.00,VWS V13.01,2013-06-14 08:51:00,
2013-06-14 03:52:00,64.6,64.6,17.72,North,357,0.0,0.0,100,0.00,,,0.00,VWS V13.01,2013-06-14 08:52:00,
2013-06-14 03:53:00,64.6,64.6,17.72,North,357,0.0,0.0,100,0.00,,,0.00,VWS V13.01,2013-06-14 08:53:00,
2013-06-14 03:54:00,64.4,64.4,17.72,North,357,0.0,0.0,100,0.00,,,0.00,VWS V13.01,2013-06-14 08:54:00,
2013-06-14 03:55:00,64.4,64.4,17.72,North,357,0.0,0.0,100,0.00,,,0.00,VWS V13.01,2013-06-14 08:55:00,
2013-06-14 03:56:00,64.4,64.4,17.72,North,357,0.0,0.0,100,0.00,,,0.00,VWS V13.01,2013-06-14 08:56:00,
2013-06-14 03:57:00,64.4,64.4,17.72,North,357,0.0,0.0,100,0.00,,,0.00,VWS V13.01,2013-06-14 08:57:00,
2013-06-14 03:58:00,64.4,64.4,17.72,North,357,0.0,0.0,100,0.00,,,0.00,VWS V13.01,2013-06-14 08:58:00,
2013-06-14 03:59:00,64.4,64.4,17.72,North,357,0.0,0.0,100,0.00,,,0.00,VWS V13.01,2013-06-14 08:59:00,
2013-06-14 04:00:00,64.6,64.6,17.72,North,357,0.0,0.0,100,0.00,,,0.00,VWS V13.01,2013-06-14 09:00:00,
2013-06-14 04:01:00,64.6,64.6,17.72,North,357,0.0,0.0,100,0.00,,,0.00,VWS V13.01,2013-06-14 09:01:00,
2013-06-14 04:02:00,64.4,64.4,17.72,North,357,0.0,0.0,100,0.00,,,0.00,VWS V13.01,2013-06-14 09:02:00,
2013-06-14 04:03:00,64.4,64.4,17.72,North,357,0.0,0.0,100,0.00,,,0.00,VWS V13.01,2013-06-14 09:03:00,
2013-06-14 04:04:00,64.4,64.4,17.72,North,357,0.0,0.0,100,0.00,,,0.00,VWS V13.01,2013-06-14 09:04:00,
2013-06-14 04:05:00,64.4,64.4,17.72,North,357,0.0,0.0,100,0.00,,,0.00,VWS V13.01,2013-06-14 09:05:00,
2013-06-14 04:06:00,64.4,64.4,17.72,North,357,0.0,0.0,100,0.00,,,0.00,VWS V13.01,2013-06-14 09:06:00,
2013-06-14 04:07:00,64.4,64.4,17.72,North,357,0.0,0.0,100,0.00,,,0.00,VWS V13.01,2013-06-14 09:07:00,
2013-06-14 04:08:00,64.4,64.4,17.72,North,357,0.0,0.0,100,0.00,,,0.00,VWS V13.01,2013-06-14 09:08:00,
2013-06-14 04:09:00,64.4,64.4,17.72,North,357,0.0,0.0,100,0.00,,,0.00,VWS V13.01,2013-06-14 09:09:00,
2013-06-14 04:10:00,64.4,64.4,17.72,North,357,0.0,0.0,100,0.00,,,0.00,VWS V13.01,2013-06-14 09:10:00,
2013-06-14 04:11:00,64.4,64.4,17.72,North,357,0.0,0.0,100,0.00,,,0.00,VWS V13.01,2013-06-14 09:11:00,
2013-06-14 04:12:00,64.4,64.4,17.72,North,357,0.0,0.0,100,0.00,,,0.00,VWS V13.01,2013-06-14 09:12:00,
2013-06-14 04:13:00,64.6,64.6,17.72,North,357,0.0,0.0,100,0.00,,,0.00,VWS V13.01,2013-06-14 09:13:00,
2013-06-14 04:14:00,64.6,64.6,17.72,North,357,0.0,0.0,100,0.00,,,0.00,VWS V13.01,2013-06-14 09:14:00,
2013-06-14 04:15:00,64.6,64.6,17.72,North,357,0.0,0.0,100,0.00,,,0.00,VWS V13.01,2013-06-14 09:15:00,
2013-06-14 04:16:00,64.6,64.6,17.72,North,357,0.0,0.0,100,0.00,,,0.00,VWS V13.01,2013-06-14 09:16:00,
2013-06-14 04:17:00,64.6,64.6,17.72,North,357,0.0,0.0,100,0.00,,,0.00,VWS V13.01,2013-06-14 09:17:00,
2013-06-14 04:18:00,64.4,64.4,17.72,North,357,0.0,0.0,100,0.00,,,0.00,VWS V13.01,2013-06-14 09:18:00,
2013-06-14 04:19:00,64.4,64.4,17.72,North,357,0.0,0.0,100,0.00,,,0.00,VWS V13.01,2013-06-14 09:19:00,
2013-06-14 04:20:00,64.4,64.4,17.72,North,357,0.0,0.0,100,0.00,,,0.00,VWS V13.01,2013-06-14 09:20:00,
2013-06-14 04:21:00,64.4,64.4,17.72,North,357,0.0,0.0,100,0.00,,,0.00,VWS V13.01,2013-06-14 09:21:00,
2013-06-14 04:22:00,64.2,64.2,17.72,North,357,0.0,0.0,100,0.00,,,0.00,VWS V13.01,2013-06-14 09:22:00,
2013-06-14 04:23:00,64.2,64.2,17.72,North,357,0.0,0.0,100,0.00,,,0.00,VWS V13.01,2013-06-14 09:23:00,
2013-06-14 04:24:00,64.2,64.2,17.72,North,357,0.0,0.0,100,0.00,,,0.00,VWS V13.01,2013-06-14 09:24:00,
2013-06-14 04:25:00,64.2,64.2,17.72,North,357,0.0,0.0,100,0.00,,,0.00,VWS V13.01,2013-06-14 09:25:00,
2013-06-14 04:26:00,64.2,64.2,17.72,North,357,0.0,0.0,100,0.00,,,0.00,VWS V13.01,2013-06-14 09:26:00,
2013-06-14 04:27:00,64.0,64.0,17.72,North,357,0.0,0.0,100,0.00,,,0.00,VWS V13.01,2013-06-14 09:27:00,
2013-06-14 04:28:00,64.0,64.0,17.72,North,357,0.0,0.0,100,0.00,,,0.00,VWS V13.01,2013-06-14 09:28:00,
2013-06-14 04:29:00,64.0,64.0,17.72,North,357,0.0,0.0,100,0.00,,,0.00,VWS V13.01,2013-06-14 09:29:00,
2013-06-14 04:30:00,64.2,64.2,17.72,North,357,0.0,0.0,100,0.00,,,0.00,VWS V13.01,2013-06-14 09:30:00,
2013-06-14 04:31:00,64.2,64.2,17.72,North,357,0.0,0.0,100,0.00,,,0.00,VWS V13.01,2013-06-14 09:31:00,
2013-06-14 04:32:00,64.2,64.2,17.72,North,357,0.0,0.0,100,0.00,,,0.00,VWS V13.01,2013-06-14 09:32:00,
2013-06-14 04:33:00,64.2,64.2,17.72,North,357,0.0,0.0,100,0.00,,,0.00,VWS V13.01,2013-06-14 09:33:00,
2013-06-14 04:34:00,64.2,64.2,17.72,North,357,0.0,0.0,100,0.00,,,0.00,VWS V13.01,2013-06-14 09:34:00,
2013-06-14 04:35:00,64.0,64.0,17.72,North,357,0.0,0.0,100,0.00,,,0.00,VWS V13.01,2013-06-14 09:35:00,
2013-06-14 04:36:00,64.0,64.0,17.72,North,357,0.0,0.0,100,0.00,,,0.00,VWS V13.01,2013-06-14 09:36:00,
2013-06-14 04:37:00,63.9,63.9,17.72,North,357,0.0,0.0,100,0.00,,,0.00,VWS V13.01,2013-06-14 09:37:00,
2013-06-14 04:38:00,63.9,63.9,17.72,North,357,0.0,0.0,100,0.00,,,0.00,VWS V13.01,2013-06-14 09:38:00,
2013-06-14 04:39:00,63.9,63.9,17.72,North,357,0.0,0.0,100,0.00,,,0.00,VWS V13.01,2013-06-14 09:39:00,
2013-06-14 04:40:00,63.9,63.9,17.72,North,357,0.0,0.0,100,0.00,,,0.00,VWS V13.01,2013-06-14 09:40:00,
2013-06-14 04:41:00,63.9,63.9,17.72,North,357,0.0,0.0,100,0.00,,,0.00,VWS V13.01,2013-06-14 09:41:00,
2013-06-14 04:42:00,63.9,63.9,17.72,North,357,0.0,0.0,100,0.00,,,0.00,VWS V13.01,2013-06-14 09:42:00,
2013-06-14 04:43:00,63.9,63.9,17.72,North,357,0.0,0.0,100,0.00,,,0.00,VWS V13.01,2013-06-14 09:43:00,
2013-06-14 04:44:00,63.9,63.9,17.72,North,357,0.0,0.0,100,0.00,,,0.00,VWS V13.01,2013-06-14 09:44:00,
2013-06-14 04:45:00,63.9,63.9,17.72,North,357,0.0,0.0,100,0.00,,,0.00,VWS V13.01,2013-06-14 09:45:00,
2013-06-14 04:46:00,63.9,63.9,17.72,North,357,0.0,0.0,100,0.00,,,0.00,VWS V13.01,2013-06-14 09:46:00,
2013-06-14 04:47:00,63.9,63.9,17.72,North,357,0.0,0.0,100,0.00,,,0.00,VWS V13.01,2013-06-14 09:47:00,
2013-06-14 04:48:00,63.9,63.9,17.72,North,357,0.0,0.0,100,0.00,,,0.00,VWS V13.01,2013-06-14 09:48:00,
2013-06-14 04:49:00,63.7,63.7,17.72,North,357,0.0,0.0,100,0.00,,,0.00,VWS V13.01,2013-06-14 09:49:00,
2013-06-14 04:50:00,63.7,63.7,17.72,North,357,0.0,0.0,100,0.00,,,0.00,VWS V13.01,2013-06-14 09:50:00,
2013-06-14 04:51:00,63.7,63.7,17.72,North,357,0.0,0.0,100,0.00,,,0.00,VWS V13.01,2013-06-14 09:51:00,
2013-06-14 04:52:00,63.7,63.7,17.72,North,357,0.0,0.0,100,0.00,,,0.00,VWS V13.01,2013-06-14 09:52:00,
2013-06-14 04:53:00,63.7,63.7,17.72,North,357,0.0,0.0,100,0.00,,,0.00,VWS V13.01,2013-06-14 09:53:00,
2013-06-14 04:54:00,63.7,63.7,17.72,North,357,0.0,0.0,100,0.00,,,0.00,VWS V13.01,2013-06-14 09:54:00,
2013-06-14 04:55:00,63.9,63.9,17.72,North,357,0.0,0.0,100,0.00,,,0.00,VWS V13.01,2013-06-14 09:55:00,
2013-06-14 04:56:00,63.9,63.9,17.72,North,357,0.0,0.0,100,0.00,,,0.00,VWS V13.01,2013-06-14 09:56:00,
2013-06-14 04:57:00,63.9,63.9,17.72,North,357,0.0,0.0,100,0.00,,,0.00,VWS V13.01,2013-06-14 09:57:00,
2013-06-14 04:58:00,63.9,63.9,17.72,North,357,0.0,0.0,100,0.00,,,0.00,VWS V13.01,2013-06-14 09:58:00,
2013-06-14 04:59:00,63.9,63.9,17.72,North,357,0.0,0.0,100,0.00,,,0.00,VWS V13.01,2013-06-14 09:59:00,
2013-06-14 05:00:00,63.9,63.9,17.72,North,357,0.0,0.0,100,0.00,,,0.00,VWS V13.01,2013-06-14 10:00:00,
2013-06-14 05:01:00,63.9,63.9,17.72,North,357,0.0,0.0,100,0.00,,,0.00,VWS V13.01,2013-06-14 10:01:00,
2013-06-14 05:02:00,63.9,63.9,17.72,North,357,0.0,0.0,100,0.00,,,0.00,VWS V13.01,2013-06-14 10:02:00,
2013-06-14 05:03:00,63.9,63.9,17.72,North,357,0.0,0.0,100,0.00,,,0.00,VWS V13.01,2013-06-14 10:03:00,
2013-06-14 05:04:00,63.9,63.9,17.72,North,357,0.0,0.0,100,0.00,,,0.00,VWS V13.01,2013-06-14 10:04:00,
2013-06-14 05:05:00,64.0,64.0,17.72,North,357,0.0,0.0,100,0.00,,,0.00,VWS V13.01,2013-06-14 10:05:00,
2013-06-14 05:06:00,64.0,64.0,17.72,North,357,0.0,0.0,100,0.00,,,0.00,VWS V13.01,2013-06-14 10:06:00,
2013-06-14 05:07:00,64.0,64.0,17.72,North,357,0.0,0.0,100,0.00,,,0.00,VWS V13.01,2013-06-14 10:07:00,
2013-06-14 05:08:00,64.2,64.2,17.72,North,357,0.0,0.0,100,0.00,,,0.00,VWS V13.01,2013-06-14 10:08:00,
2013-06-14 05:09:00,64.6,64.6,17.72,North,357,0.0,0.0,100,0.00,,,0.00,VWS V13.01,2013-06-14 10:09:00,
2013-06-14 05:10:00,64.6,64.6,17.72,North,357,0.0,0.0,100,0.00,,,0.00,VWS V13.01,2013-06-14 10:10:00,
2013-06-14 05:11:00,64.6,64.6,17.72,North,357,0.0,0.0,100,0.00,,,0.00,VWS V13.01,2013-06-14 10:11:00,
2013-06-14 05:12:00,64.6,64.6,17.72,North,357,0.0,0.0,100,0.00,,,0.00,VWS V13.01,2013-06-14 10:12:00,
2013-06-14 05:13:00,64.6,64.6,17.72,North,357,0.0,0.0,100,0.00,,,0.00,VWS V13.01,2013-06-14 10:13:00,
2013-06-14 05:14:00,64.4,64.4,17.72,North,357,0.0,0.0,100,0.00,,,0.00,VWS V13.01,2013-06-14 10:14:00,
2013-06-14 05:15:00,64.4,64.4,17.72,North,357,0.0,0.0,100,0.00,,,0.00,VWS V13.01,2013-06-14 10:15:00,
2013-06-14 05:16:00,64.4,64.4,17.72,North,357,0.0,0.0,100,0.00,,,0.00,VWS V13.01,2013-06-14 10:16:00,
2013-06-14 05:17:00,64.4,64.4,17.72,North,357,0.0,0.0,100,0.00,,,0.00,VWS V13.01,2013-06-14 10:17:00,
2013-06-14 05:18:00,64.4,64.4,17.72,North,357,0.0,0.0,100,0.00,,,0.00,VWS V13.01,2013-06-14 10:18:00,
2013-06-14 05:19:00,64.4,64.4,17.72,North,357,0.0,0.0,100,0.00,,,0.00,VWS V13.01,2013-06-14 10:19:00,
2013-06-14 05:20:00,64.6,64.6,17.72,North,357,0.0,0.0,100,0.00,,,0.00,VWS V13.01,2013-06-14 10:20:00,
2013-06-14 05:21:00,64.4,64.4,17.72,North,357,0.0,0.0,100,0.00,,,0.00,VWS V13.01,2013-06-14 10:21:00,
2013-06-14 05:22:00,64.2,64.2,17.72,North,357,0.0,0.0,100,0.00,,,0.00,VWS V13.01,2013-06-14 10:22:00,
2013-06-14 05:23:00,64.2,64.2,17.72,North,357,0.0,0.0,100,0.00,,,0.00,VWS V13.01,2013-06-14 10:23:00,
2013-06-14 05:24:00,64.2,64.2,17.72,North,357,0.0,0.0,100,0.00,,,0.00,VWS V13.01,2013-06-14 10:24:00,
2013-06-14 05:25:00,64.0,64.0,17.72,North,357,0.0,0.0,100,0.00,,,0.00,VWS V13.01,2013-06-14 10:25:00,
2013-06-14 05:26:00,64.0,64.0,17.72,North,357,0.0,0.0,100,0.00,,,0.00,VWS V13.01,2013-06-14 10:26:00,
2013-06-14 05:27:00,64.0,64.0,17.72,North,357,0.0,0.0,100,0.00,,,0.00,VWS V13.01,2013-06-14 10:27:00,
2013-06-14 05:28:00,64.2,64.2,17.72,North,357,0.0,0.0,100,0.00,,,0.00,VWS V13.01,2013-06-14 10:28:00,
2013-06-14 05:29:00,64.2,64.2,17.72,North,357,0.0,0.0,100,0.00,,,0.00,VWS V13.01,2013-06-14 10:29:00,
2013-06-14 05:30:00,64.2,64.2,17.72,North,357,0.0,0.0,100,0.00,,,0.00,VWS V13.01,2013-06-14 10:30:00,
2013-06-14 05:31:00,64.2,64.2,17.72,North,357,0.0,0.0,100,0.00,,,0.00,VWS V13.01,2013-06-14 10:31:00,
2013-06-14 05:32:00,64.2,64.2,17.72,North,357,0.0,0.0,100,0.00,,,0.00,VWS V13.01,2013-06-14 10:32:00,
2013-06-14 05:33:00,64.2,64.2,17.72,North,357,0.0,0.0,100,0.00,,,0.00,VWS V13.01,2013-06-14 10:33:00,
2013-06-14 05:34:00,64.2,64.2,17.72,North,357,0.0,0.0,100,0.00,,,0.00,VWS V13.01,2013-06-14 10:34:00,
2013-06-14 05:35:00,64.2,64.2,17.72,North,357,0.0,0.0,100,0.00,,,0.00,VWS V13.01,2013-06-14 10:35:00,
2013-06-14 05:36:00,64.2,64.2,17.72,North,357,0.0,0.0,100,0.00,,,0.00,VWS V13.01,2013-06-14 10:36:00,
2013-06-14 05:37:00,64.2,64.2,17.72,North,357,0.0,0.0,100,0.00,,,0.00,VWS V13.01,2013-06-14 10:37:00,
2013-06-14 05:38:00,64.0,64.0,17.72,North,357,0.0,0.0,100,0.00,,,0.00,VWS V13.01,2013-06-14 10:38:00,
2013-06-14 05:39:00,64.0,64.0,17.72,North,357,0.0,0.0,100,0.00,,,0.00,VWS V13.01,2013-06-14 10:39:00,
2013-06-14 05:40:00,64.0,64.0,17.72,North,357,0.0,0.0,100,0.00,,,0.00,VWS V13.01,2013-06-14 10:40:00,
2013-06-14 05:41:00,64.2,64.2,17.72,North,357,0.0,0.0,100,0.00,,,0.00,VWS V13.01,2013-06-14 10:41:00,
2013-06-14 05:42:00,64.2,64.2,17.72,North,357,0.0,0.0,100,0.00,,,0.00,VWS V13.01,2013-06-14 10:42:00,
2013-06-14 05:43:00,64.4,64.4,17.72,North,357,0.0,0.0,100,0.00,,,0.00,VWS V13.01,2013-06-14 10:43:00,
2013-06-14 05:44:00,64.4,64.4,17.72,North,357,0.0,0.0,100,0.00,,,0.00,VWS V13.01,2013-06-14 10:44:00,
2013-06-14 05:45:00,64.4,64.4,17.72,North,357,0.0,0.0,100,0.00,,,0.00,VWS V13.01,2013-06-14 10:45:00,
2013-06-14 05:46:00,64.6,64.6,17.72,North,357,0.0,0.0,100,0.00,,,0.00,VWS V13.01,2013-06-14 10:46:00,
2013-06-14 05:47:00,64.6,64.6,17.72,North,357,0.0,0.0,100,0.00,,,0.00,VWS V13.01,2013-06-14 10:47:00,
2013-06-14 05:48:00,64.6,64.6,17.72,North,357,0.0,0.0,100,0.00,,,0.00,VWS V13.01,2013-06-14 10:48:00,
2013-06-14 05:49:00,64.6,64.6,17.72,North,357,0.0,0.0,100,0.00,,,0.00,VWS V13.01,2013-06-14 10:49:00,
2013-06-14 05:50:00,64.6,64.6,17.72,North,357,0.0,0.0,100,0.00,,,0.00,VWS V13.01,2013-06-14 10:50:00,
2013-06-14 05:51:00,64.6,64.6,17.72,South,190,0.0,0.0,100,0.00,,,0.00,VWS V13.01,2013-06-14 10:51:00,
2013-06-14 05:52:00,64.6,64.6,17.72,South,189,0.0,0.0,100,0.00,,,0.00,VWS V13.01,2013-06-14 10:52:00,
2013-06-14 05:53:00,64.8,64.8,17.72,South,177,0.0,0.0,100,0.00,,,0.00,VWS V13.01,2013-06-14 10:53:00,
2013-06-14 05:54:00,64.8,64.8,17.72,South,178,0.0,0.0,100,0.00,,,0.00,VWS V13.01,2013-06-14 10:54:00,
2013-06-14 05:55:00,64.9,64.9,17.72,South,176,2.7,2.7,100,0.00,,,0.00,VWS V13.01,2013-06-14 10:55:00,
2013-06-14 05:56:00,64.8,64.8,17.72,South,176,0.0,0.0,100,0.00,,,0.00,VWS V13.01,2013-06-14 10:56:00,
2013-06-14 05:57:00,64.9,64.9,17.72,South,180,0.0,0.0,100,0.00,,,0.00,VWS V13.01,2013-06-14 10:57:00,
2013-06-14 05:58:00,64.9,64.9,17.72,South,180,0.0,0.0,100,0.00,,,0.00,VWS V13.01,2013-06-14 10:58:00,
2013-06-14 05:59:00,64.9,64.9,17.72,South,183,0.0,0.0,100,0.00,,,0.00,VWS V13.01,2013-06-14 10:59:00,
2013-06-14 06:00:00,65.1,65.1,17.72,South,182,3.1,3.1,100,0.00,,,0.00,VWS V13.01,2013-06-14 11:00:00,
2013-06-14 06:01:00,65.1,65.1,17.72,South,182,0.0,0.0,100,0.00,,,0.00,VWS V13.01,2013-06-14 11:01:00,
2013-06-14 06:02:00,65.1,65.1,17.72,South,180,0.0,0.0,100,0.00,,,0.00,VWS V13.01,2013-06-14 11:02:00,
2013-06-14 06:03:00,65.1,65.1,17.72,SSW,192,2.7,2.7,100,0.00,,,0.00,VWS V13.01,2013-06-14 11:03:00,
2013-06-14 06:04:00,65.1,65.1,17.72,SSE,159,2.7,2.7,100,0.00,,,0.00,VWS V13.01,2013-06-14 11:04:00,
2013-06-14 06:05:00,65.1,65.1,17.72,South,185,2.7,2.7,100,0.00,,,0.00,VWS V13.01,2013-06-14 11:05:00,
2013-06-14 06:06:00,65.3,65.3,17.72,South,187,3.1,3.1,100,0.00,,,0.00,VWS V13.01,2013-06-14 11:06:00,
2013-06-14 06:07:00,65.3,65.3,17.72,South,178,3.1,3.1,100,0.00,,,0.00,VWS V13.01,2013-06-14 11:07:00,
2013-06-14 06:08:00,65.5,65.5,17.72,South,183,5.8,5.8,100,0.00,,,0.00,VWS V13.01,2013-06-14 11:08:00,
2013-06-14 06:09:00,65.5,65.5,17.72,South,185,5.4,5.4,100,0.00,,,0.00,VWS V13.01,2013-06-14 11:09:00,
2013-06-14 06:10:00,65.7,65.7,17.72,South,183,4.9,4.9,100,0.00,,,0.00,VWS V13.01,2013-06-14 11:10:00,
2013-06-14 06:11:00,65.8,65.8,17.72,South,179,4.0,4.0,100,0.00,,,0.00,VWS V13.01,2013-06-14 11:11:00,
2013-06-14 06:12:00,65.8,65.8,17.72,South,179,5.4,5.4,100,0.00,,,0.00,VWS V13.01,2013-06-14 11:12:00,
2013-06-14 06:13:00,66.0,66.0,17.72,South,179,5.8,5.8,100,0.00,,,0.00,VWS V13.01,2013-06-14 11:13:00,
2013-06-14 06:14:00,66.0,66.0,17.72,South,180,7.6,7.6,100,0.00,,,0.00,VWS V13.01,2013-06-14 11:14:00,
2013-06-14 06:15:00,66.2,66.2,17.72,South,181,3.6,3.6,100,0.00,,,0.00,VWS V13.01,2013-06-14 11:15:00,
2013-06-14 06:16:00,66.2,66.2,17.72,South,180,5.4,5.4,100,0.00,,,0.00,VWS V13.01,2013-06-14 11:16:00,
2013-06-14 06:17:00,66.4,66.4,17.72,South,180,5.4,5.4,100,0.00,,,0.00,VWS V13.01,2013-06-14 11:17:00,
2013-06-14 06:18:00,66.4,66.4,17.72,South,180,4.0,4.0,100,0.00,,,0.00,VWS V13.01,2013-06-14 11:18:00,
2013-06-14 06:19:00,66.4,66.4,17.72,South,183,5.8,5.8,100,0.00,,,0.00,VWS V13.01,2013-06-14 11:19:00,
2013-06-14 06:20:00,66.6,66.6,17.72,South,190,5.8,5.8,100,0.00,,,0.00,VWS V13.01,2013-06-14 11:20:00,
2013-06-14 06:21:00,66.7,66.7,17.72,South,190,4.9,4.9,100,0.00,,,0.00,VWS V13.01,2013-06-14 11:21:00,
2013-06-14 06:22:00,66.7,66.7,17.72,South,190,4.0,4.0,100,0.00,,,0.00,VWS V13.01,2013-06-14 11:22:00,
2013-06-14 06:23:00,66.7,66.7,17.72,South,190,2.7,2.7,100,0.00,,,0.00,VWS V13.01,2013-06-14 11:23:00,
2013-06-14 06:24:00,66.7,66.7,17.72,South,190,3.1,3.1,100,0.00,,,0.00,VWS V13.01,2013-06-14 11:24:00,
2013-06-14 06:25:00,66.9,66.9,17.72,South,190,4.9,4.9,100,0.00,,,0.00,VWS V13.01,2013-06-14 11:25:00,
2013-06-14 06:26:00,67.1,67.1,17.72,South,190,2.2,2.2,100,0.00,,,0.00,VWS V13.01,2013-06-14 11:26:00,
2013-06-14 06:27:00,67.1,67.1,17.72,South,190,0.0,0.0,100,0.00,,,0.00,VWS V13.01,2013-06-14 11:27:00,
2013-06-14 06:28:00,67.1,67.1,17.72,South,190,0.0,0.0,100,0.00,,,0.00,VWS V13.01,2013-06-14 11:28:00,
2013-06-14 06:29:00,67.1,67.1,17.72,South,190,0.0,0.0,100,0.00,,,0.00,VWS V13.01,2013-06-14 11:29:00,
2013-06-14 06:30:00,67.1,67.1,17.72,South,190,0.0,0.0,100,0.00,,,0.00,VWS V13.01,2013-06-14 11:30:00,
2013-06-14 06:31:00,67.3,67.3,17.72,South,190,0.0,0.0,100,0.00,,,0.00,VWS V13.01,2013-06-14 11:31:00,
2013-06-14 06:32:00,67.3,67.3,17.72,South,190,0.0,0.0,100,0.00,,,0.00,VWS V13.01,2013-06-14 11:32:00,
2013-06-14 06:33:00,67.3,67.3,17.72,South,190,0.0,0.0,100,0.00,,,0.00,VWS V13.01,2013-06-14 11:33:00,
2013-06-14 06:34:00,67.3,67.3,17.72,South,190,0.0,0.0,100,0.00,,,0.00,VWS V13.01,2013-06-14 11:34:00,
2013-06-14 06:35:00,67.3,67.3,17.72,South,190,0.0,0.0,100,0.00,,,0.00,VWS V13.01,2013-06-14 11:35:00,
2013-06-14 06:36:00,67.5,67.5,17.72,South,190,0.0,0.0,100,0.00,,,0.00,VWS V13.01,2013-06-14 11:36:00,
2013-06-14 06:37:00,67.5,67.5,17.72,South,190,0.0,0.0,100,0.00,,,0.00,VWS V13.01,2013-06-14 11:37:00,
2013-06-14 06:38:00,67.5,67.5,17.72,South,190,0.0,0.0,100,0.00,,,0.00,VWS V13.01,2013-06-14 11:38:00,
2013-06-14 06:39:00,67.5,67.5,17.72,South,190,0.0,0.0,100,0.00,,,0.00,VWS V13.01,2013-06-14 11:39:00,
2013-06-14 06:40:00,67.5,67.5,17.72,South,190,0.0,0.0,100,0.00,,,0.00,VWS V13.01,2013-06-14 11:40:00,
2013-06-14 06:41:00,67.5,67.5,17.72,South,190,0.0,0.0,100,0.00,,,0.00,VWS V13.01,2013-06-14 11:41:00,
2013-06-14 06:42:00,67.5,67.5,17.72,South,190,0.0,0.0,100,0.00,,,0.00,VWS V13.01,2013-06-14 11:42:00,
2013-06-14 06:43:00,67.5,67.5,17.72,South,190,0.0,0.0,100,0.00,,,0.00,VWS V13.01,2013-06-14 11:43:00,
2013-06-14 06:44:00,67.5,67.5,17.72,South,190,0.0,0.0,100,0.00,,,0.00,VWS V13.01,2013-06-14 11:44:00,
2013-06-14 06:45:00,67.5,67.5,17.72,South,190,0.0,0.0,100,0.00,,,0.00,VWS V13.01,2013-06-14 11:45:00,
2013-06-14 06:46:00,67.5,67.5,17.72,South,190,0.0,0.0,100,0.00,,,0.00,VWS V13.01,2013-06-14 11:46:00,
2013-06-14 06:47:00,67.6,67.6,17.72,South,190,0.0,0.0,100,0.00,,,0.00,VWS V13.01,2013-06-14 11:47:00,
2013-06-14 06:48:00,67.6,67.6,17.72,South,190,0.0,0.0,100,0.00,,,0.00,VWS V13.01,2013-06-14 11:48:00,
2013-06-14 06:49:00,67.8,67.8,17.72,South,190,0.0,0.0,100,0.00,,,0.00,VWS V13.01,2013-06-14 11:49:00,
2013-06-14 06:50:00,68.0,68.0,17.72,South,190,0.0,0.0,100,0.00,,,0.00,VWS V13.01,2013-06-14 11:50:00,
2013-06-14 06:51:00,68.2,68.2,17.72,South,190,0.0,0.0,100,0.00,,,0.00,VWS V13.01,2013-06-14 11:51:00,
2013-06-14 06:52:00,68.5,68.5,17.72,South,190,0.0,0.0,100,0.00,,,0.00,VWS V13.01,2013-06-14 11:52:00,
2013-06-14 06:53:00,68.7,68.7,17.72,South,190,0.0,0.0,100,0.00,,,0.00,VWS V13.01,2013-06-14 11:53:00,
2013-06-14 06:54:00,69.1,69.1,17.72,South,190,0.0,0.0,100,0.00,,,0.00,VWS V13.01,2013-06-14 11:54:00,
2013-06-14 06:55:00,69.3,69.3,17.72,South,190,0.0,0.0,100,0.00,,,0.00,VWS V13.01,2013-06-14 11:55:00,
2013-06-14 06:56:00,69.4,69.4,17.72,South,190,0.0,0.0,100,0.00,,,0.00,VWS V13.01,2013-06-14 11:56:00,
2013-06-14 06:57:00,69.6,69.6,17.72,South,190,0.0,0.0,100,0.00,,,0.00,VWS V13.01,2013-06-14 11:57:00,
2013-06-14 06:58:00,69.6,69.6,17.72,South,190,0.0,0.0,100,0.00,,,0.00,VWS V13.01,2013-06-14 11:58:00,
2013-06-14 06:59:00,70.0,70.0,17.72,South,190,0.0,0.0,100,0.00,,,0.00,VWS V13.01,2013-06-14 11:59:00,
2013-06-14 07:00:00,70.3,70.3,17.72,South,190,0.0,0.0,100,0.00,,,0.00,VWS V13.01,2013-06-14 12:00:00,
2013-06-14 07:01:00,70.3,70.3,17.72,South,190,0.0,0.0,100,0.00,,,0.00,VWS V13.01,2013-06-14 12:01:00,
2013-06-14 07:02:00,70.5,70.5,17.72,South,190,4.0,4.0,100,0.00,,,0.00,VWS V13.01,2013-06-14 12:02:00,
2013-06-14 07:03:00,70.7,70.7,17.72,South,190,4.0,4.0,100,0.00,,,0.00,VWS V13.01,2013-06-14 12:03:00,
2013-06-14 07:04:00,70.7,70.7,17.72,South,190,3.1,3.1,100,0.00,,,0.00,VWS V13.01,2013-06-14 12:04:00,
2013-06-14 07:05:00,70.7,70.7,17.72,South,190,3.6,3.6,100,0.00,,,0.00,VWS V13.01,2013-06-14 12:05:00,
2013-06-14 07:06:00,70.9,70.9,17.72,South,190,3.1,3.1,100,0.00,,,0.00,VWS V13.01,2013-06-14 12:06:00,
2013-06-14 07:07:00,70.9,70.9,17.72,South,190,2.7,2.7,100,0.00,,,0.00,VWS V13.01,2013-06-14 12:07:00,
2013-06-14 07:08:00,70.9,70.9,17.72,South,190,0.0,0.0,100,0.00,,,0.00,VWS V13.01,2013-06-14 12:08:00,
2013-06-14 07:09:00,70.7,70.7,17.72,South,190,0.0,0.0,100,0.00,,,0.00,VWS V13.01,2013-06-14 12:09:00,
2013-06-14 07:10:00,70.9,70.9,17.72,South,190,0.0,0.0,100,0.00,,,0.00,VWS V13.01,2013-06-14 12:10:00,
2013-06-14 07:11:00,70.9,70.9,17.72,South,190,0.0,0.0,100,0.00,,,0.00,VWS V13.01,2013-06-14 12:11:00,
2013-06-14 07:12:00,71.1,71.1,17.72,South,190,0.0,0.0,100,0.00,,,0.00,VWS V13.01,2013-06-14 12:12:00,
2013-06-14 07:13:00,71.4,71.4,17.72,South,190,0.0,0.0,100,0.00,,,0.00,VWS V13.01,2013-06-14 12:13:00,
2013-06-14 07:14:00,71.6,71.6,17.72,South,190,0.0,0.0,100,0.00,,,0.00,VWS V13.01,2013-06-14 12:14:00,
2013-06-14 07:15:00,72.1,72.1,17.72,South,190,0.0,0.0,100,0.00,,,0.00,VWS V13.01,2013-06-14 12:15:00,
2013-06-14 07:16:00,72.1,72.1,17.72,South,190,0.0,0.0,100,0.00,,,0.00,VWS V13.01,2013-06-14 12:16:00,
2013-06-14 07:17:00,72.0,72.0,17.72,South,190,0.0,0.0,100,0.00,,,0.00,VWS V13.01,2013-06-14 12:17:00,
2013-06-14 07:18:00,72.0,72.0,17.72,South,190,0.0,0.0,100,0.00,,,0.00,VWS V13.01,2013-06-14 12:18:00,
2013-06-14 07:19:00,71.8,71.8,17.72,South,190,0.0,0.0,100,0.00,,,0.00,VWS V13.01,2013-06-14 12:19:00,
2013-06-14 07:20:00,71.8,71.8,17.72,South,190,0.0,0.0,100,0.00,,,0.00,VWS V13.01,2013-06-14 12:20:00,
2013-06-14 07:21:00,71.8,71.8,17.72,South,190,0.0,0.0,100,0.00,,,0.00,VWS V13.01,2013-06-14 12:21:00,
2013-06-14 07:22:00,71.8,71.8,17.72,South,190,0.0,0.0,100,0.00,,,0.00,VWS V13.01,2013-06-14 12:22:00,
2013-06-14 07:23:00,71.8,71.8,17.72,South,190,0.0,0.0,100,0.00,,,0.00,VWS V13.01,2013-06-14 12:23:00,
2013-06-14 07:24:00,71.8,71.8,17.72,South,190,0.0,0.0,100,0.00,,,0.00,VWS V13.01,2013-06-14 12:24:00,
2013-06-14 07:25:00,71.8,71.8,17.72,South,190,0.0,0.0,100,0.00,,,0.00,VWS V13.01,2013-06-14 12:25:00,
2013-06-14 07:26:00,72.0,72.0,17.72,South,190,0.0,0.0,100,0.00,,,0.00,VWS V13.01,2013-06-14 12:26:00,
2013-06-14 07:27:00,72.7,63.5,17.72,South,190,0.0,0.0,73,0.00,,,0.00,VWS V13.01,2013-06-14 12:27:00,
2013-06-14 07:28:00,72.7,63.5,17.72,South,190,4.9,4.9,73,0.00,,,0.00,VWS V13.01,2013-06-14 12:28:00,
2013-06-14 07:29:00,73.2,64.1,17.72,South,190,4.0,4.0,73,0.00,,,0.00,VWS V13.01,2013-06-14 12:29:00,
2013-06-14 07:30:00,73.2,64.1,17.72,South,190,2.7,2.7,73,0.00,,,0.00,VWS V13.01,2013-06-14 12:30:00,
2013-06-14 07:31:00,72.7,63.5,17.72,South,190,4.9,4.9,73,0.00,,,0.00,VWS V13.01,2013-06-14 12:31:00,
2013-06-14 07:32:00,72.1,63.0,17.72,South,190,4.0,4.0,73,0.00,,,0.00,VWS V13.01,2013-06-14 12:32:00,
2013-06-14 07:33:00,72.1,63.0,17.72,South,190,4.0,4.0,73,0.00,,,0.00,VWS V13.01,2013-06-14 12:33:00,
2013-06-14 07:34:00,72.0,62.8,17.72,South,189,4.0,4.0,73,0.00,,,0.00,VWS V13.01,2013-06-14 12:34:00,
2013-06-14 07:35:00,72.0,62.8,17.72,South,189,4.0,4.0,73,0.00,,,0.00,VWS V13.01,2013-06-14 12:35:00,
2013-06-14 07:36:00,72.0,62.8,17.72,South,189,4.9,4.9,73,0.00,,,0.00,VWS V13.01,2013-06-14 12:36:00,
2013-06-14 07:37:00,72.0,62.8,17.72,South,189,4.0,4.0,73,0.00,,,0.00,VWS V13.01,2013-06-14 12:37:00,
2013-06-14 07:38:00,72.0,62.8,17.72,South,189,4.9,4.9,73,0.00,,,0.00,VWS V13.01,2013-06-14 12:38:00,
2013-06-14 07:39:00,72.5,63.4,17.72,South,189,4.0,4.0,73,0.00,,,0.00,VWS V13.01,2013-06-14 12:39:00,
2013-06-14 07:40:00,72.7,63.5,17.72,South,189,4.0,4.0,73,0.00,,,0.00,VWS V13.01,2013-06-14 12:40:00,
2013-06-14 07:41:00,73.2,64.1,17.72,South,188,4.9,4.9,73,0.00,,,0.00,VWS V13.01,2013-06-14 12:41:00,
2013-06-14 07:42:00,73.0,63.9,17.72,South,186,5.8,5.8,73,0.00,,,0.00,VWS V13.01,2013-06-14 12:42:00,
2013-06-14 07:43:00,73.0,63.9,17.72,South,185,5.8,5.8,73,0.00,,,0.00,VWS V13.01,2013-06-14 12:43:00,
2013-06-14 07:44:00,73.0,63.9,17.72,South,184,6.3,6.3,73,0.00,,,0.00,VWS V13.01,2013-06-14 12:44:00,
2013-06-14 07:45:00,72.9,63.7,17.72,South,180,5.8,5.8,73,0.00,,,0.00,VWS V13.01,2013-06-14 12:45:00,
2013-06-14 07:46:00,72.9,63.7,17.72,SSW,194,4.0,4.0,73,0.00,,,0.00,VWS V13.01,2013-06-14 12:46:00,
2013-06-14 07:47:00,73.0,63.9,17.72,SSW,194,4.0,4.0,73,0.00,,,0.00,VWS V13.01,2013-06-14 12:47:00,
2013-06-14 07:48:00,73.2,64.1,17.72,SSW,194,3.1,3.1,73,0.00,,,0.00,VWS V13.01,2013-06-14 12:48:00,
2013-06-14 07:49:00,73.0,63.9,17.72,SSW,194,3.6,3.6,73,0.00,,,0.00,VWS V13.01,2013-06-14 12:49:00,
2013-06-14 07:50:00,72.9,63.7,17.72,SSW,194,3.6,3.6,73,0.00,,,0.00,VWS V13.01,2013-06-14 12:50:00,
2013-06-14 07:51:00,72.7,63.5,17.72,SSW,194,4.0,4.0,73,0.00,,,0.00,VWS V13.01,2013-06-14 12:51:00,
2013-06-14 07:52:00,72.3,63.2,17.72,SSW,194,4.0,4.0,73,0.00,,,0.00,VWS V13.01,2013-06-14 12:52:00,
2013-06-14 07:53:00,72.5,63.4,17.72,SSW,194,3.6,3.6,73,0.00,,,0.00,VWS V13.01,2013-06-14 12:53:00,
2013-06-14 07:54:00,72.7,63.5,17.72,SSW,194,3.1,3.1,73,0.00,,,0.00,VWS V13.01,2013-06-14 12:54:00,
2013-06-14 07:55:00,72.9,63.7,17.72,SSW,194,0.0,0.0,73,0.00,,,0.00,VWS V13.01,2013-06-14 12:55:00,
2013-06-14 07:56:00,73.4,64.2,17.72,SSW,194,0.0,0.0,73,0.00,,,0.00,VWS V13.01,2013-06-14 12:56:00,
2013-06-14 07:57:00,73.6,64.4,17.72,SSW,194,0.0,0.0,73,0.00,,,0.00,VWS V13.01,2013-06-14 12:57:00,
2013-06-14 07:58:00,73.9,56.8,17.72,SSW,194,0.0,0.0,55,0.00,,,0.00,VWS V13.01,2013-06-14 12:58:00,
2013-06-14 07:59:00,73.9,56.8,17.72,SSW,194,0.0,0.0,55,0.00,,,0.00,VWS V13.01,2013-06-14 12:59:00,
2013-06-14 08:00:00,73.9,56.8,17.72,SSW,194,0.0,0.0,55,0.00,,,0.00,VWS V13.01,2013-06-14 13:00:00,
2013-06-14 08:01:00,73.9,56.8,17.72,SSW,194,0.0,0.0,55,0.00,,,0.00,VWS V13.01,2013-06-14 13:01:00,
2013-06-14 08:02:00,73.6,56.4,17.72,South,179,2.7,2.7,55,0.00,,,0.00,VWS V13.01,2013-06-14 13:02:00,
2013-06-14 08:03:00,73.8,56.6,17.72,South,189,5.4,5.4,55,0.00,,,0.00,VWS V13.01,2013-06-14 13:03:00,
2013-06-14 08:04:00,73.9,56.8,17.72,South,189,4.0,4.0,55,0.00,,,0.00,VWS V13.01,2013-06-14 13:04:00,
2013-06-14 08:05:00,73.9,56.8,17.72,South,189,4.0,4.0,55,0.00,,,0.00,VWS V13.01,2013-06-14 13:05:00,
2013-06-14 08:06:00,74.5,57.3,17.72,South,189,4.9,4.9,55,0.00,,,0.00,VWS V13.01,2013-06-14 13:06:00,
2013-06-14 08:07:00,74.8,57.6,17.72,South,189,3.6,3.6,55,0.00,,,0.00,VWS V13.01,2013-06-14 13:07:00,
2013-06-14 08:08:00,75.7,58.4,17.72,South,189,0.0,0.0,55,0.00,,,0.00,VWS V13.01,2013-06-14 13:08:00,
2013-06-14 08:09:00,75.9,58.6,17.72,South,189,3.1,3.1,55,0.00,,,0.00,VWS V13.01,2013-06-14 13:09:00,
2013-06-14 08:10:00,76.3,58.9,17.72,South,189,3.1,3.1,55,0.00,,,0.00,VWS V13.01,2013-06-14 13:10:00,
2013-06-14 08:11:00,76.5,59.1,17.72,South,189,3.1,3.1,55,0.00,,,0.00,VWS V13.01,2013-06-14 13:11:00,
2013-06-14 08:12:00,76.3,58.9,17.72,South,188,4.0,4.0,55,0.00,,,0.00,VWS V13.01,2013-06-14 13:12:00,
2013-06-14 08:13:00,76.8,59.5,17.72,South,187,0.0,0.0,55,0.00,,,0.00,VWS V13.01,2013-06-14 13:13:00,
2013-06-14 08:14:00,76.5,59.1,17.72,South,187,4.0,4.0,55,0.00,,,0.00,VWS V13.01,2013-06-14 13:14:00,
2013-06-14 08:15:00,75.9,58.6,17.72,South,184,5.4,5.4,55,0.00,,,0.00,VWS V13.01,2013-06-14 13:15:00,
2013-06-14 08:16:00,75.4,58.1,17.72,South,190,6.3,6.3,55,0.00,,,0.00,VWS V13.01,2013-06-14 13:16:00,
2013-06-14 08:17:00,75.7,58.4,17.72,South,189,4.0,4.0,55,0.00,,,0.00,VWS V13.01,2013-06-14 13:17:00,
2013-06-14 08:18:00,76.1,58.8,17.72,South,187,2.7,2.7,55,0.00,,,0.00,VWS V13.01,2013-06-14 13:18:00,
2013-06-14 08:19:00,76.5,59.1,17.72,South,187,3.1,3.1,55,0.00,,,0.00,VWS V13.01,2013-06-14 13:19:00,
2013-06-14 08:20:00,76.6,59.3,17.72,South,187,3.6,3.6,55,0.00,,,0.00,VWS V13.01,2013-06-14 13:20:00,
2013-06-14 08:21:00,76.3,58.9,17.72,South,183,8.1,8.1,55,0.00,,,0.00,VWS V13.01,2013-06-14 13:21:00,
2013-06-14 08:22:00,75.4,58.1,17.72,South,188,8.1,8.1,55,0.00,,,0.00,VWS V13.01,2013-06-14 13:22:00,
2013-06-14 08:23:00,75.6,58.3,17.72,South,184,5.4,5.4,55,0.00,,,0.00,VWS V13.01,2013-06-14 13:23:00,
2013-06-14 08:24:00,75.6,58.3,17.72,South,184,2.2,2.2,55,0.00,,,0.00,VWS V13.01,2013-06-14 13:24:00,
2013-06-14 08:25:00,75.9,58.6,17.72,South,183,5.4,5.4,55,0.00,,,0.00,VWS V13.01,2013-06-14 13:25:00,
2013-06-14 08:26:00,76.3,58.9,17.72,South,183,6.3,6.3,55,0.00,,,0.00,VWS V13.01,2013-06-14 13:26:00,
2013-06-14 08:27:00,75.7,58.4,17.72,South,183,5.8,5.8,55,0.00,,,0.00,VWS V13.01,2013-06-14 13:27:00,
2013-06-14 08:28:00,76.1,58.8,17.72,South,184,3.6,3.6,55,0.00,,,0.00,VWS V13.01,2013-06-14 13:28:00,
2013-06-14 08:29:00,76.1,58.8,17.72,South,184,3.6,3.6,55,0.00,,,0.00,VWS V13.01,2013-06-14 13:29:00,
2013-06-14 08:30:00,76.6,59.3,17.72,South,184,0.0,0.0,55,0.00,,,0.00,VWS V13.01,2013-06-14 13:30:00,
2013-06-14 08:31:00,76.8,59.5,17.72,South,184,0.0,0.0,55,0.00,,,0.00,VWS V13.01,2013-06-14 13:31:00,
2013-06-14 08:32:00,76.8,59.5,17.72,South,184,3.1,3.1,55,0.00,,,0.00,VWS V13.01,2013-06-14 13:32:00,
2013-06-14 08:33:00,76.8,59.5,17.72,South,184,3.1,3.1,55,0.00,,,0.00,VWS V13.01,2013-06-14 13:33:00,
2013-06-14 08:34:00,76.8,59.5,17.72,South,184,3.1,3.1,55,0.00,,,0.00,VWS V13.01,2013-06-14 13:34:00,
2013-06-14 08:35:00,77.7,60.3,17.72,South,184,2.7,2.7,55,0.00,,,0.00,VWS V13.01,2013-06-14 13:35:00,
2013-06-14 08:36:00,77.7,60.3,17.72,South,184,2.7,2.7,55,0.00,,,0.00,VWS V13.01,2013-06-14 13:36:00,
2013-06-14 08:37:00,78.8,58.0,17.72,South,184,0.0,0.0,49,0.00,,,0.00,VWS V13.01,2013-06-14 13:37:00,
2013-06-14 08:38:00,79.9,59.0,17.72,South,183,0.0,0.0,49,0.00,,,0.00,VWS V13.01,2013-06-14 13:38:00,
2013-06-14 08:39:00,80.1,59.2,17.72,South,183,0.0,0.0,49,0.00,,,0.00,VWS V13.01,2013-06-14 13:39:00,
2013-06-14 08:40:00,80.2,59.4,17.72,South,183,0.0,0.0,49,0.00,,,0.00,VWS V13.01,2013-06-14 13:40:00,
2013-06-14 08:41:00,80.4,59.5,17.72,South,183,3.1,3.1,49,0.00,,,0.00,VWS V13.01,2013-06-14 13:41:00,
2013-06-14 08:42:00,79.7,58.9,17.72,South,183,3.1,3.1,49,0.00,,,0.00,VWS V13.01,2013-06-14 13:42:00,
2013-06-14 08:43:00,80.2,59.4,17.72,South,183,3.1,3.1,49,0.00,,,0.00,VWS V13.01,2013-06-14 13:43:00,
2013-06-14 08:44:00,80.2,59.4,17.72,South,183,0.0,0.0,49,0.00,,,0.00,VWS V13.01,2013-06-14 13:44:00,
2013-06-14 08:45:00,80.4,59.5,17.72,South,183,0.0,0.0,49,0.00,,,0.00,VWS V13.01,2013-06-14 13:45:00,
2013-06-14 08:46:00,80.6,59.7,17.72,South,183,3.6,3.6,49,0.00,,,0.00,VWS V13.01,2013-06-14 13:46:00,
2013-06-14 08:47:00,81.0,60.0,17.72,South,187,2.7,2.7,49,0.00,,,0.00,VWS V13.01,2013-06-14 13:47:00,
2013-06-14 08:48:00,81.3,60.3,17.72,SSE,152,3.1,3.1,49,0.00,,,0.00,VWS V13.01,2013-06-14 13:48:00,
2013-06-14 08:49:00,81.3,60.3,17.72,South,183,3.6,3.6,49,0.00,,,0.00,VWS V13.01,2013-06-14 13:49:00,
2013-06-14 08:50:00,81.1,60.2,17.72,South,183,2.7,2.7,49,0.00,,,0.00,VWS V13.01,2013-06-14 13:50:00,
2013-06-14 08:51:00,81.0,60.0,17.72,South,188,2.7,2.7,49,0.00,,,0.00,VWS V13.01,2013-06-14 13:51:00,
2013-06-14 08:52:00,80.8,59.9,17.72,South,188,2.7,2.7,49,0.00,,,0.00,VWS V13.01,2013-06-14 13:52:00,
2013-06-14 08:53:00,80.4,59.5,17.72,South,187,3.6,3.6,49,0.00,,,0.00,VWS V13.01,2013-06-14 13:53:00,
2013-06-14 08:54:00,79.0,58.2,17.72,South,187,4.0,4.0,49,0.00,,,0.00,VWS V13.01,2013-06-14 13:54:00,
2013-06-14 08:55:00,79.3,58.5,17.72,South,187,0.0,0.0,49,0.00,,,0.00,VWS V13.01,2013-06-14 13:55:00,
2013-06-14 08:56:00,79.5,58.7,17.72,South,187,0.0,0.0,49,0.00,,,0.00,VWS V13.01,2013-06-14 13:56:00,
2013-06-14 08:57:00,79.3,58.5,17.72,South,187,2.7,2.7,49,0.00,,,0.00,VWS V13.01,2013-06-14 13:57:00,
2013-06-14 08:58:00,79.0,58.2,17.72,South,184,2.7,2.7,49,0.00,,,0.00,VWS V13.01,2013-06-14 13:58:00,
2013-06-14 08:59:00,78.3,60.8,17.72,South,177,6.3,6.3,55,0.00,,,0.00,VWS V13.01,2013-06-14 13:59:00,
2013-06-14 09:00:00,78.4,61.0,17.72,South,181,5.8,5.8,55,0.00,,,0.00,VWS V13.01,2013-06-14 14:00:00,
2013-06-14 09:01:00,79.2,58.4,17.72,SE,144,4.0,4.0,49,0.00,,,0.00,VWS V13.01,2013-06-14 14:01:00,
2013-06-14 09:02:00,79.2,58.4,17.72,South,180,5.8,5.8,49,0.00,,,0.00,VWS V13.01,2013-06-14 14:02:00,
2013-06-14 09:03:00,78.6,61.1,17.72,South,182,7.6,7.6,55,0.00,,,0.00,VWS V13.01,2013-06-14 14:03:00,
2013-06-14 09:04:00,78.3,60.8,17.72,South,184,5.4,5.4,55,0.00,,,0.00,VWS V13.01,2013-06-14 14:04:00,
2013-06-14 09:05:00,78.8,58.0,17.72,South,184,3.1,3.1,49,0.00,,,0.00,VWS V13.01,2013-06-14 14:05:00,
2013-06-14 09:06:00,78.8,58.0,17.72,South,182,6.3,6.3,49,0.00,,,0.00,VWS V13.01,2013-06-14 14:06:00,
2013-06-14 09:07:00,79.2,58.4,17.72,South,177,5.4,5.4,49,0.00,,,0.00,VWS V13.01,2013-06-14 14:07:00,
2013-06-14 09:08:00,78.6,61.1,17.72,South,182,6.3,6.3,55,0.00,,,0.00,VWS V13.01,2013-06-14 14:08:00,
2013-06-14 09:09:00,79.9,59.0,17.72,South,184,3.6,3.6,49,0.00,,,0.00,VWS V13.01,2013-06-14 14:09:00,
2013-06-14 09:10:00,79.9,59.0,17.72,South,181,6.3,6.3,49,0.00,,,0.00,VWS V13.01,2013-06-14 14:10:00,
2013-06-14 09:11:00,80.4,59.5,17.72,South,188,5.4,5.4,49,0.00,,,0.00,VWS V13.01,2013-06-14 14:11:00,
2013-06-14 09:12:00,79.7,58.9,17.72,South,178,7.6,7.6,49,0.00,,,0.00,VWS V13.01,2013-06-14 14:12:00,
2013-06-14 09:13:00,79.0,58.2,17.72,South,178,8.3,8.3,49,0.00,,,0.00,VWS V13.01,2013-06-14 14:13:00,
2013-06-14 09:14:00,78.4,61.0,17.72,South,178,8.3,8.3,55,0.00,,,0.00,VWS V13.01,2013-06-14 14:14:00,
2013-06-14 09:15:00,78.4,61.0,17.72,South,173,3.1,3.1,55,0.00,,,0.00,VWS V13.01,2013-06-14 14:15:00,
2013-06-14 09:16:00,78.4,61.0,17.72,South,179,8.7,8.7,55,0.00,,,0.00,VWS V13.01,2013-06-14 14:16:00,
2013-06-14 09:17:00,78.3,60.8,17.72,South,183,7.6,7.6,55,0.00,,,0.00,VWS V13.01,2013-06-14 14:17:00,
2013-06-14 09:18:00,78.3,60.8,17.72,South,184,2.7,2.7,55,0.00,,,0.00,VWS V13.01,2013-06-14 14:18:00,
2013-06-14 09:19:00,78.8,58.0,17.72,South,174,8.1,8.1,49,0.00,,,0.00,VWS V13.01,2013-06-14 14:19:00,
2013-06-14 09:20:00,78.8,58.0,17.72,South,180,10.1,10.1,49,0.00,,,0.00,VWS V13.01,2013-06-14 14:20:00,
2013-06-14 09:21:00,78.1,60.6,17.72,South,180,4.5,4.5,55,0.00,,,0.00,VWS V13.01,2013-06-14 14:21:00,
2013-06-14 09:22:00,78.8,58.0,17.72,South,184,8.7,8.7,49,0.00,,,0.00,VWS V13.01,2013-06-14 14:22:00,
2013-06-14 09:23:00,78.8,58.0,17.72,South,178,7.6,7.6,49,0.00,,,0.00,VWS V13.01,2013-06-14 14:23:00,
2013-06-14 23:05:00,76.3,58.9,17.72,South,180,7.6,7.6,55,0.00,,,0.00,VWS V13.01,2013-06-15 04:05:00,
2013-06-14 23:10:00,75.7,58.4,17.72,South,180,6.3,6.3,55,0.00,,,0.00,VWS V13.01,2013-06-15 04:10:00,
2013-06-14 23:15:00,75.6,58.3,17.72,South,176,5.8,5.8,55,0.00,,,0.00,VWS V13.01,2013-06-15 04:15:00,
2013-06-14 23:20:00,75.6,58.3,17.72,South,181,8.7,8.7,55,0.00,,,0.00,VWS V13.01,2013-06-15 04:20:00,
2013-06-14 23:21:00,75.6,58.3,17.72,South,182,6.3,6.3,55,0.00,,,0.00,VWS V13.01,2013-06-15 04:21:00,
2013-06-14 23:25:00,75.4,58.1,17.72,South,178,7.6,7.6,55,0.00,,,0.00,VWS V13.01,2013-06-15 04:25:00,
2013-06-14 23:26:00,75.4,58.1,17.72,South,178,8.1,8.1,55,0.00,,,0.00,VWS V13.01,2013-06-15 04:26:00,
2013-06-14 23:30:00,75.4,58.1,17.72,South,180,8.3,8.3,55,0.00,,,0.00,VWS V13.01,2013-06-15 04:30:00,
2013-06-14 23:31:00,75.4,58.1,17.72,South,175,8.1,8.1,55,0.00,,,0.00,VWS V13.01,2013-06-15 04:31:00,
2013-06-14 23:35:00,75.0,57.8,17.72,SSE,160,4.9,4.9,55,0.00,,,0.00,VWS V13.01,2013-06-15 04:35:00,
2013-06-14 23:36:00,75.0,57.8,17.72,SSW,192,4.0,4.0,55,0.00,,,0.00,VWS V13.01,2013-06-15 04:36:00,
2013-06-14 23:40:00,75.0,57.8,17.72,South,182,7.6,7.6,55,0.00,,,0.00,VWS V13.01,2013-06-15 04:40:00,
2013-06-14 23:41:00,75.0,57.8,17.72,SSE,168,8.1,8.1,55,0.00,,,0.00,VWS V13.01,2013-06-15 04:41:00,
2013-06-14 23:45:00,75.2,57.9,17.72,South,182,5.8,5.8,55,0.00,,,0.00,VWS V13.01,2013-06-15 04:45:00,
2013-06-14 23:46:00,75.0,57.8,17.72,South,179,7.6,7.6,55,0.00,,,0.00,VWS V13.01,2013-06-15 04:46:00,
2013-06-14 23:50:00,75.0,57.8,17.72,South,180,3.6,3.6,55,0.00,,,0.00,VWS V13.01,2013-06-15 04:50:00,
2013-06-14 23:51:00,75.0,57.8,17.72,South,180,6.3,6.3,55,0.00,,,0.00,VWS V13.01,2013-06-15 04:51:00,
2013-06-14 23:55:00,74.8,57.6,17.72,South,185,5.8,5.8,55,0.00,,,0.00,VWS V13.01,2013-06-15 04:55:00,
2013-06-14 23:56:00,74.8,57.6,17.72,South,179,5.4,5.4,55,0.00,,,0.00,VWS V13.01,2013-06-15 04:56:00,